Location: Unspecified
(44.4377°N, 88.0525°W)
Time: 10:06:53
(UTC-05:00)

Cosmos 1674 - Visible Passes

Search period start: 18 September 2018 00:00
Search period end: 28 September 2018 00:00
Orbit: 497 x 520 km, 82.5° (Epoch: 17 September)

Date Brightness Start Highest point End Pass type
(mag) Time Alt. Az. Time Alt. Az. Time Alt. Az.
18 Sep 4.0 21:06:43 10° N 21:08:59 32° NNE 21:08:59 32° NNE visible
19 Sep 3.8 20:49:32 10° N 20:52:05 32° NE 20:52:05 32° NE visible
19 Sep 5.9 22:26:16 10° NW 22:26:57 12° WNW 22:26:57 12° WNW visible
20 Sep 3.8 20:32:26 10° N 20:35:11 29° NE 20:35:11 29° NE visible
20 Sep 5.6 22:08:34 10° NW 22:10:04 16° WNW 22:10:04 16° WNW visible
21 Sep 3.9 20:15:21 10° NNE 20:18:21 25° ENE 20:18:21 25° ENE visible
21 Sep 5.1 21:50:59 10° NW 21:53:13 21° WNW 21:53:13 21° WNW visible
22 Sep 4.1 19:58:21 10° NNE 20:01:17 20° ENE 20:01:32 20° ENE visible
22 Sep 4.6 21:33:30 10° NNW 21:36:26 28° WNW 21:36:26 28° WNW visible
23 Sep 4.3 19:41:27 10° NNE 19:43:56 16° ENE 19:44:46 15° E visible
23 Sep 4.0 21:16:05 10° NNW 21:19:39 37° W 21:19:39 37° W visible
24 Sep 4.6 19:24:44 10° NE 19:26:36 13° ENE 19:28:05 11° E visible
24 Sep 3.5 20:58:43 10° NNW 21:02:28 49° W 21:02:58 45° WSW visible
25 Sep 3.0 20:41:23 10° NNW 20:45:14 65° W 20:46:22 42° SSW visible
26 Sep 2.6 20:24:06 10° N 20:27:59 85° W 20:29:50 30° S visible
27 Sep 2.6 20:06:51 10° N 20:10:44 74° E 20:13:26 19° SSE visible
